Location: Beccas
(43.4309°N, 0.1528°E)
Time: 13:19:40
(UTC+00:00)

Cosmos 1703 - Pass Details

Date: 28 May 2022
Orbit: 518 x 535 km, 82.5° (Epoch: 03 July)

Event Time Altitude Azimuth Distance (km) Brightness Sun altitude
Exits shadow 02:49:44 24° 232° (SW) 1,144 4.3 -13.9°
Maximum altitude 02:51:33 38° 283° (WNW) 836 4.0 -13.7°
Drops below altitude 10° 02:55:14 10° 352° (N) 1,794 6.5 -13.3°
Sets 02:57:31 0° 1° (N) 2,686 7.6 -13.0°
